Location: *
(2.5500°S, 65.9667°W)
Time: 12:37:39
(UTC+00:00)

H-2A R/B - Pass Details

Date: 26 October 2021
Orbit: 577 x 654 km, 98.5° (Epoch: 29 November)

Event Time Altitude Azimuth Distance (km) Brightness Sun altitude
Rises 22:44:29 0° 16° (NNE) 2,852 5.2 -8.4°
Reaches altitude 10° 22:46:38 10° 19° (NNE) 1,964 4.3 -8.9°
Maximum altitude 22:50:53 71° 102° (ESE) 662 2.0 -9.9°
Drops below altitude 10° 22:55:16 10° 186° (S) 2,021 5.0 -11.0°
Sets 22:57:30 0° 188° (S) 2,943 5.8 -11.5°
